Wind_Speed
27 27 26 26 26 26 25 25 26 26 26 26 26 26 26 26 26 26 26 27 27 27 27 27 27 28 28 28 27 27 27 27 27 27 28 28 28 28 28 29 30 30 30
28 28 28 28 28 27 27 26 26 26 26 26 27 27 27 27 27 27 27 27 27 27 27 27 27 28 28 28 28 28 28 28 28 28 28 28 29 28 29 29 30 30 31
30 30 30 30 29 29 28 27 27 27 26 27 28 28 28 27 28 28 28 28 28 28 28 27 28 28 28 28 28 28 29 29 29 29 29 29 29 30 29 29 29 30 30
31 30 30 30 31 30 30 28 27 28 28 29 29 29 29 29 29 29 29 29 28 28 28 28 28 29 29 29 29 29 29 29 29 29 29 30 30 30 30 30 30 30 30
31 31 30 30 31 31 30 30 29 30 29 29 30 30 30 30 30 30 30 29 29 29 30 30 30 30 31 30 30 31 30 30 31 31 31 31 31 31 31 32 32 31 31
31 31 31 31 32 32 32 32 31 31 31 31 31 31 32 32 31 31 30 30 30 31 31 31 32 32 32 32 32 32 32 32 32 32 32 32 33 33 33 33 33 33 33
32 33 33 33 34 34 34 34 34 33 33 33 32 33 33 33 32 32 32 32 32 32 32 32 33 34 34 34 34 34 34 34 34 34 34 34 34 35 35 35 35 35 35
33 33 34 34 34 35 35 35 35 35 35 34 34 34 34 34 34 34 34 34 34 34 34 34 34 35 35 35 35 35 35 36 36 36 35 35 36 36 36 36 36 37 37
34 35 35 35 35 36 36 35 36 36 35 35 35 35 35 35 35 35 35 35 35 35 35 35 35 35 36 36 36 36 37 37 38 37 37 37 37 37 37 37 37 37 37
34 35 36 35 36 36 36 36 35 36 36 36 36 36 36 36 35 35 36 36 36 36 37 37 36 36 37 37 37 38 39 39 39 39 39 39 39 38 38 38 38 38 38
35 36 36 36 37 37 37 38 38 37 37 38 38 38 38 38 38 37 37 37 37 38 38 38 38 38 38 38 39 40 40 40 41 40 40 40 40 40 40 39 40 40 40
37 37 37 37 37 38 38 38 39 39 39 40 40 40 40 39 39 39 39 39 39 39 40 40 40 40 40 40 40 41 41 42 42 42 42 41 41 41 41 41 41 41 41
37 37 38 38 38 38 39 40 40 40 41 41 41 41 41 41 40 40 41 41 40 40 41 42 42 42 42 42 42 42 43 43 43 43 43 43 43 43 43 43 43 42 43
37 38 39 38 39 39 40 41 41 42 42 43 42 42 42 42 42 42 42 43 43 43 43 43 43 44 44 44 44 44 44 44 44 44 44 44 44 44 44 44 44 44 45
38 39 39 39 39 40 41 42 43 43 44 43 43 42 43 43 44 44 44 44 45 45 44 44 44 45 45 45 45 45 46 45 45 46 46 46 46 46 46 46 46 46 47
38 38 40 40 41 41 41 43 44 43 43 43 43 43 44 45 45 45 45 46 46 46 45 45 46 46 46 46 46 47 47 47 47 47 47 48 48 47 47 47 47 48 48
38 39 40 41 42 42 42 43 43 43 42 43 43 44 45 45 46 46 46 47 47 47 47 47 47 48 48 48 48 48 49 49 49 49 49 49 50 49 49 49 49 50 49
40 41 41 41 41 41 41 42 43 43 44 44 44 45 45 46 47 47 47 48 48 49 49 49 49 49 49 49 49 50 50 51 51 50 50 51 51 51 51 51 50 50 50
41 41 41 42 42 42 43 43 44 44 45 45 45 46 47 47 48 49 49 50 50 50 50 51 51 51 51 51 51 51 51 51 51 51 52 52 52 52 52 51 51 51 51
42 43 43 44 45 45 45 45 45 46 46 47 47 48 48 49 50 51 52 52 52 52 52 53 52 52 52 52 52 52 51 52 52 52 53 53 53 53 52 52 52 52 52
43 45 45 46 46 46 46 46 46 47 47 49 50 50 51 52 52 53 54 54 54 54 53 54 54 54 54 54 54 54 53 53 53 53 54 54 54 53 53 52 52 53 53
45 46 47 47 47 47 47 47 48 49 49 50 51 52 52 53 54 54 55 55 55 55 55 55 55 56 56 56 56 55 55 54 53 54 54 54 54 53 53 52 52 52 52
46 47 47 47 47 48 48 48 49 50 51 52 52 52 52 53 54 55 55 56 56 57 57 56 56 56 55 56 56 56 55 55 54 55 54 53 53 53 53 52 52 52 51
46 46 47 47 48 49 49 49 50 51 51 52 52 53 53 54 55 55 55 55 56 56 56 57 57 56 56 56 56 55 55 55 55 54 54 53 53 53 53 53 53 52 52
47 47 47 48 49 49 50 51 51 52 52 52 53 54 54 55 55 56 56 55 55 55 55 56 56 56 55 55 55 55 55 55 54 54 54 54 53 52 52 52 51 51 51
49 49 49 50 51 51 52 52 53 53 53 54 54 54 55 55 55 55 55 54 54 55 55 55 54 54 54 54 54 54 55 55 55 54 54 54 53 52 50 49 49 49 49
Wind_Direction
254 255 256 256 257 259 261 265 268 270 272 273 275 277 279 280 280 281 281 282 283 283 284 285 283 281 282 284 285 285 285 285 286 286 286 287 288 288 287 287 286 284 283
256 256 256 256 257 259 262 265 268 270 272 274 275 277 277 278 278 281 282 283 283 282 283 284 283 282 282 283 284 284 284 284 285 286 286 287 287 288 288 287 287 285 283
258 257 257 258 258 260 263 265 267 269 272 274 275 275 275 277 279 281 282 283 283 282 283 284 283 283 282 283 284 284 284 283 284 284 285 286 287 288 288 288 288 287 285
257 257 258 259 260 261 263 264 267 270 273 275 274 274 275 277 279 279 281 282 283 283 283 283 283 283 282 283 284 284 284 283 283 284 284 285 286 287 288 289 289 288 286
257 256 258 260 262 262 264 265 267 270 273 275 275 275 276 277 278 278 279 281 282 283 283 284 284 284 283 283 283 284 283 282 282 283 283 284 285 286 287 288 287 287 286
257 257 257 260 262 263 264 266 268 269 271 273 274 274 276 276 277 278 278 280 282 284 284 284 283 283 283 283 283 283 283 283 282 283 283 284 285 285 286 286 286 286 286
259 258 258 260 262 263 264 266 268 270 270 271 272 274 275 276 277 278 278 280 282 283 284 284 283 283 283 283 283 283 283 283 283 284 285 285 286 286 286 285 284 284 284
262 261 258 260 261 263 265 267 269 270 270 270 272 274 275 275 276 278 278 280 281 282 283 284 284 283 282 282 283 283 283 283 284 284 285 286 286 287 286 285 284 283 283
262 262 261 261 263 263 265 267 268 269 270 271 273 274 274 274 276 277 278 279 279 280 283 284 284 283 282 282 283 283 283 283 283 283 284 284 285 285 285 285 284 283 283
262 261 261 261 263 264 266 268 269 270 270 272 273 273 274 276 276 276 277 278 279 280 282 283 283 283 282 282 282 283 283 283 283 283 283 283 283 283 284 284 284 283 282
263 263 262 261 263 264 266 268 269 271 272 272 273 273 274 275 276 276 277 278 279 281 282 283 283 282 282 282 283 283 283 282 282 282 282 282 282 283 283 283 283 283 282
264 265 264 264 265 265 267 269 270 271 272 273 273 273 274 275 277 277 278 279 280 281 282 283 283 283 282 282 282 282 282 282 282 282 281 281 282 283 283 282 282 282 281
264 265 265 266 267 267 268 269 270 272 272 273 273 273 274 276 277 277 278 278 279 281 282 282 282 282 282 282 281 282 282 282 282 281 281 281 282 283 283 283 283 282 281
266 266 267 267 267 268 269 269 271 272 273 273 273 274 275 275 276 277 277 278 279 280 281 281 281 281 282 282 281 282 282 282 281 281 281 281 282 282 283 283 282 281 281
267 268 268 268 270 271 272 273 274 274 275 274 274 274 274 275 276 277 278 278 278 278 279 280 280 281 282 282 282 282 282 281 282 282 281 281 281 282 283 283 282 282 281
268 269 270 270 271 272 273 274 274 274 274 274 273 273 274 275 277 278 278 278 278 279 279 279 280 281 282 282 282 281 281 281 282 282 281 281 281 282 282 282 282 282 281
269 270 270 271 272 273 275 275 274 274 273 274 273 274 275 276 277 278 278 278 278 279 280 280 280 281 281 282 281 281 281 281 281 281 281 282 281 281 282 282 282 281 281
270 270 271 271 273 274 275 276 275 274 273 274 274 274 275 276 277 278 279 280 280 280 280 280 280 281 281 281 281 281 281 281 281 281 281 282 282 282 282 282 282 281 281
271 271 272 272 273 274 275 277 276 275 274 274 275 275 276 276 278 279 280 280 281 281 281 281 281 281 281 281 281 281 281 280 281 281 282 282 282 282 282 282 281 281 281
272 272 273 273 274 275 276 276 275 275 275 275 275 276 277 277 278 279 280 280 281 281 281 281 281 281 281 281 282 281 281 281 281 281 282 282 282 282 282 281 281 281 281
274 273 273 274 275 276 276 276 275 276 276 276 275 276 277 277 278 278 279 279 280 280 281 281 282 282 282 282 281 281 281 280 281 281 282 282 282 281 281 281 281 281 281
276 274 274 275 275 276 276 276 276 276 276 276 276 276 277 277 277 278 279 279 279 280 281 282 282 282 282 281 281 281 281 280 280 281 282 282 282 281 281 281 281 281 281
277 276 276 276 275 275 276 276 277 277 278 277 277 277 277 277 277 278 278 279 279 280 281 281 281 282 281 281 280 280 280 280 281 281 281 282 281 281 281 281 281 282 281
276 276 276 276 276 275 276 276 277 277 278 277 277 277 277 277 277 278 278 278 279 279 280 280 281 280 280 279 278 279 279 280 281 281 281 281 281 281 281 281 281 281 280
277 277 276 276 276 276 276 276 277 277 277 277 277 277 277 277 278 279 279 279 279 279 280 280 280 279 279 278 278 279 279 280 280 281 281 281 281 281 281 281 281 280 280
278 278 277 276 276 276 276 276 277 277 277 277 277 278 278 278 278 279 280 279 279 280 280 280 279 279 279 278 279 280 280 280 280 280 280 281 281 280 280 280 280 279 280
Height
5819 5820 5821 5822 5822 5823 5823 5823 5823 5823 5822 5822 5822 5821 5820 5820 5819 5818 5816 5815 5814 5813 5811 5810 5808 5807 5806 5805 5804 5803 5802 5801 5799 5798 5797 5795 5794 5793 5791 5790 5788 5787 5786
5813 5814 5815 5816 5817 5817 5817 5818 5818 5817 5817 5817 5816 5816 5815 5814 5813 5812 5811 5809 5808 5807 5806 5804 5803 5801 5800 5799 5798 5797 5796 5795 5794 5792 5791 5789 5788 5786 5785 5783 5782 5780 5779
5807 5808 5809 5810 5811 5811 5812 5812 5812 5812 5811 5811 5811 5810 5809 5808 5807 5806 5805 5803 5802 5801 5800 5798 5797 5796 5795 5793 5792 5791 5790 5789 5787 5786 5785 5783 5782 5780 5778 5777 5775 5774 5772
5800 5802 5803 5804 5804 5805 5805 5805 5806 5806 5806 5805 5805 5804 5803 5802 5801 5800 5799 5797 5796 5795 5794 5792 5791 5790 5789 5787 5786 5785 5783 5782 5781 5779 5778 5776 5775 5773 5772 5770 5768 5767 5765
5794 5795 5796 5797 5798 5798 5799 5799 5799 5799 5799 5799 5798 5797 5796 5795 5794 5794 5793 5791 5790 5789 5787 5786 5785 5784 5782 5781 5780 5778 5777 5775 5774 5772 5771 5770 5768 5766 5765 5763 5761 5760 5758
5787 5788 5789 5790 5791 5792 5792 5792 5792 5792 5792 5792 5791 5791 5790 5788 5788 5787 5786 5785 5783 5782 5781 5779 5778 5777 5775 5774 5773 5771 5769 5768 5767 5765 5764 5762 5761 5759 5757 5755 5754 5752 5750
5780 5781 5782 5783 5783 5784 5785 5785 5785 5785 5785 5784 5784 5783 5783 5781 5780 5780 5779 5778 5776 5775 5773 5772 5770 5769 5768 5766 5765 5763 5762 5760 5759 5757 5756 5754 5752 5751 5749 5747 5745 5744 5742
5773 5774 5775 5775 5776 5776 5777 5777 5778 5778 5777 5777 5777 5776 5775 5774 5773 5772 5771 5770 5768 5767 5766 5764 5763 5761 5760 5758 5757 5755 5754 5752 5751 5749 5747 5746 5744 5742 5740 5738 5737 5735 5733
5766 5766 5767 5767 5768 5769 5769 5769 5770 5770 5769 5769 5768 5768 5767 5766 5765 5764 5763 5762 5760 5759 5758 5756 5755 5753 5751 5750 5748 5747 5745 5743 5742 5740 5738 5737 5735 5733 5731 5729 5727 5726 5724
5758 5758 5759 5759 5760 5761 5761 5761 5761 5761 5761 5760 5760 5759 5759 5758 5757 5757 5755 5754 5752 5751 5749 5748 5746 5744 5743 5741 5739 5738 5736 5734 5732 5730 5728 5727 5725 5723 5721 5719 5717 5716 5714
5749 5750 5751 5751 5752 5752 5752 5753 5753 5753 5752 5752 5751 5750 5750 5749 5748 5748 5747 5745 5744 5742 5740 5739 5737 5735 5733 5731 5730 5728 5726 5724 5722 5720 5718 5716 5714 5713 5711 5709 5707 5705 5703
5741 5741 5742 5742 5743 5743 5743 5743 5744 5743 5743 5742 5742 5741 5740 5740 5739 5738 5737 5736 5734 5733 5731 5729 5727 5725 5723 5721 5719 5717 5715 5713 5711 5709 5707 5705 5703 5701 5700 5698 5696 5694 5692
5732 5732 5733 5733 5733 5733 5734 5734 5734 5733 5733 5732 5732 5731 5730 5729 5729 5728 5727 5725 5724 5723 5721 5719 5716 5714 5712 5710 5708 5706 5704 5702 5700 5698 5696 5694 5692 5690 5688 5686 5684 5682 5680
5723 5724 5724 5724 5724 5724 5724 5724 5723 5723 5722 5722 5721 5720 5719 5719 5718 5717 5716 5715 5713 5712 5710 5708 5706 5703 5701 5699 5697 5694 5692 5690 5688 5686 5684 5682 5680 5678 5676 5674 5672 5670 5668
5714 5714 5715 5714 5714 5714 5713 5713 5712 5712 5712 5711 5710 5709 5708 5707 5706 5705 5703 5702 5701 5700 5699 5697 5694 5692 5689 5687 5685 5683 5680 5678 5676 5673 5671 5669 5667 5665 5663 5661 5659 5657 5655
5705 5705 5705 5704 5704 5704 5703 5703 5702 5701 5700 5700 5699 5698 5697 5696 5694 5693 5691 5690 5688 5687 5686 5685 5682 5680 5677 5675 5673 5670 5667 5665 5663 5660 5658 5656 5654 5652 5650 5647 5645 5643 5641
5695 5695 5694 5694 5693 5693 5692 5691 5690 5690 5689 5688 5687 5686 5685 5684 5682 5681 5679 5677 5676 5674 5673 5672 5670 5667 5665 5662 5660 5657 5654 5652 5649 5647 5644 5642 5640 5638 5635 5633 5631 5629 5627
5685 5684 5684 5683 5682 5681 5680 5680 5679 5678 5677 5676 5675 5674 5673 5671 5670 5668 5667 5665 5663 5661 5659 5658 5657 5654 5652 5649 5646 5644 5641 5638 5636 5633 5631 5628 5626 5624 5621 5619 5617 5615 5612
5674 5673 5672 5672 5670 5669 5669 5668 5667 5666 5665 5664 5663 5662 5660 5659 5657 5655 5654 5652 5650 5648 5645 5644 5643 5640 5638 5635 5633 5630 5627 5624 5622 5619 5617 5614 5612 5609 5607 5604 5602 5600 5598
5662 5661 5660 5660 5659 5658 5657 5655 5655 5654 5653 5651 5650 5649 5647 5645 5644 5642 5640 5638 5636 5634 5631 5629 5628 5626 5623 5621 5618 5616 5613 5611 5608 5606 5603 5600 5598 5595 5593 5590 5588 5585 5583
5650 5649 5648 5647 5646 5645 5644 5642 5641 5640 5639 5638 5637 5635 5633 5631 5629 5628 5626 5624 5622 5619 5617 5615 5613 5611 5608 5606 5603 5601 5598 5596 5594 5591 5589 5586 5583 5581 5578 5575 5572 5570 5568
5637 5636 5635 5634 5633 5631 5630 5629 5628 5627 5626 5624 5623 5621 5619 5617 5615 5613 5611 5609 5607 5604 5602 5600 5598 5595 5593 5590 5587 5585 5583 5581 5580 5578 5574 5572 5568 5566 5563 5560 5558 5555 5553
5624 5623 5621 5620 5619 5617 5616 5615 5613 5613 5611 5610 5608 5606 5604 5602 5600 5598 5596 5594 5591 5588 5586 5584 5582 5579 5577 5574 5572 5570 5567 5565 5564 5561 5559 5557 5553 5550 5548 5545 5542 5540 5538
5611 5609 5608 5606 5605 5603 5602 5600 5599 5598 5597 5595 5593 5591 5589 5587 5584 5582 5580 5578 5576 5573 5570 5568 5566 5563 5560 5558 5556 5554 5552 5550 5549 5546 5542 5541 5538 5535 5532 5530 5527 5524 5522
5597 5595 5594 5592 5591 5589 5587 5586 5584 5583 5582 5580 5578 5576 5573 5571 5569 5566 5564 5563 5560 5557 5554 5552 5550 5547 5544 5542 5539 5537 5536 5534 5533 5531 5526 5525 5523 5520 5518 5515 5511 5508 5506
5583 5581 5579 5578 5576 5574 5572 5570 5569 5568 5567 5565 5563 5561 5558 5556 5553 5550 5548 5546 5544 5542 5539 5537 5534 5532 5529 5526 5524 5521 5519 5517 5516 5515 5512 5509 5507 5504 5503 5502 5497 5494 5491